Printer-friendly version

IAU Minor Planet Center

Minor Planet Center

(79) Eurynome

Orbital Elements

The following orbital elements are taken from MPC 22665:
   (79) Eurynome
Epoch 2003 Dec. 27.0 TT = JDT 2453000.5  (M-c)          Goffin
M 225.75800              (2000.0)            P               Q
n   0.25794648     Peri.  200.42880     +0.67943520     -0.73283453
a   2.4440850      Node   206.81165     +0.68388344     +0.65044438
e   0.1925488      Incl.    4.62245     +0.26584064     +0.19968893
P   3.82           H    7.96          G   0.25
From 844 observations at 78 oppositions, 1863-1991, mean residual 1".05.
An explanation of the orbital elements is available.

These orbital elements are also available in forms suitable for loading into a number of popular planetarium-type software programs.


Ephemeris

The following ephemeris is at intervals of five days. A daily ephemeris covering the same time interval is also available.

Date    TT    R. A. (2000) Decl.     Delta      r     Elong.  Phase     V
 
2004 06 24    20 53.14   -10 12.2    1.655    2.515   139.4    15.2    11.8
2004 06 29    20 51.08   -10 09.7    1.607    2.505   144.5    13.6    11.7
2004 07 04    20 48.38   -10 10.8    1.563    2.495   149.8    11.8    11.5
2004 07 09    20 45.09   -10 15.3    1.525    2.485   155.1     9.9    11.4
2004 07 14    20 41.26   -10 23.4    1.493    2.474   160.4     7.9    11.3
2004 07 19    20 36.98   -10 34.8    1.467    2.464   165.5     5.9    11.2
2004 07 24    20 32.38   -10 49.2    1.446    2.453   170.0     4.1    11.0
2004 07 29    20 27.59   -11 06.1    1.433    2.443   172.2     3.2    11.0
2004 08 03    20 22.75   -11 25.2    1.426    2.432   170.4     4.0    11.0
2004 08 08    20 18.01   -11 45.7    1.425    2.421   166.0     5.8    11.1
2004 08 13    20 13.52   -12 07.3    1.431    2.411   160.8     7.9    11.1
2004 08 18    20 09.42   -12 29.2    1.442    2.400   155.4    10.1    11.2
2004 08 23    20 05.84   -12 51.0    1.460    2.389   149.9    12.3    11.3
2004 08 28    20 02.89   -13 12.1    1.483    2.378   144.5    14.3    11.4
2004 09 02    20 00.63   -13 32.1    1.510    2.368   139.2    16.2    11.5
2004 09 07    19 59.11   -13 50.6    1.543    2.357   134.0    17.9    11.6
2004 09 12    19 58.38   -14 07.5    1.578    2.346   129.0    19.5    11.7
2004 09 17    19 58.44   -14 22.4    1.618    2.335   124.2    20.9    11.7
2004 09 22    19 59.29   -14 35.0    1.660    2.325   119.5    22.1    11.8

Back to Bright Minor Planets

Astronomical Headlines Index


Valid HTML 4.01!